Weather History for KJAC - October, 2013

Change the Weather History Date:

Sunday, October 13, 2013

  Actual Average Record
Temperature  
Mean Temperature 38 °F -  
Max Temperature 44 °F 55 °F 72 °F (1964)
Min Temperature 33 °F 24 °F 11 °F (1969)
Degree Days  
Heating Degree Days 26    
Moisture  
Dew Point 35 °F    
Average Humidity 94    
Maximum Humidity 100    
Minimum Humidity 76    
Precipitation  
Precipitation 0.09 in - - ()
Sea Level Pressure  
Sea Level Pressure 30.04 in    
Wind  
Wind Speed 3 mph (NNE)    
Max Wind Speed 13 mph    
Max Gust Speed -    
Visibility 8 miles    
Events Snow    
Averages and records for this station are not official NWS values.
T = Trace of Precipitation, MM = Missing Value Source: NWS Daily Summary

Daily Weather History Graph

Daily Weather History Graph

Search for Another Location

Airport or City:

Trip Planner

Search our weather history database for the weather conditions in past years. The results will help you decide how hot, cold, wet, or windy it might be!

Date:

Astronomy

Oct. 13, 2013 Rise Set
Actual Time 7:35 AM MDT 6:42 PM MDT
Civil Twilight 7:06 AM MDT 7:11 PM MDT
Nautical Twilight 6:33 AM MDT 7:44 PM MDT
Astronomical Twilight 5:59 AM MDT 8:17 PM MDT
Moon 3:44 PM MDT (10/13) 1:39 AM MDT (10/13)
Length of Visible Light 12h 04m
Length of Day
11h 07m
Waxing Gibbous, 70% of the Moon is Illuminated
Oct 13
Waxing Gibbous
Oct 18
Full
Oct 26
Last Quarter
Nov 3
New
Nov 9
First Quarter

Hourly Weather History & Observations

Time (MDT) Temp. Windchill Dew Point Humidity Pressure Visibility Wind Dir Wind Speed Gust Speed Precip Events Conditions
12:15 AM 37.4 °F - 33.8 °F 87% 30.08 in 10.0 mi Calm Calm - N/A   Overcast
12:55 AM 35.6 °F - 33.8 °F 93% 30.08 in - Calm Calm - N/A   Overcast
1:15 AM 33.8 °F 30.8 °F 32.0 °F 93% 30.08 in 10.0 mi NNE 3.5 mph - N/A   Mostly Cloudy
1:35 AM 33.8 °F - 32.0 °F 93% 30.08 in 10.0 mi Calm Calm - N/A   Mostly Cloudy
1:55 AM 33.8 °F 27.7 °F 32.0 °F 93% 30.07 in 10.0 mi North 6.9 mph - N/A   Scattered Clouds
2:15 AM 33.8 °F 29.6 °F 32.0 °F 93% 30.07 in 10.0 mi NNE 4.6 mph - N/A   Mostly Cloudy
2:35 AM 33.8 °F 27.7 °F 32.0 °F 93% 30.06 in 10.0 mi North 6.9 mph - N/A   Mostly Cloudy
2:55 AM 33.8 °F 24.8 °F 32.0 °F 93% 30.06 in 10.0 mi North 12.7 mph - N/A   Partly Cloudy
3:15 AM 33.8 °F 24.8 °F 32.0 °F 93% 30.05 in 10.0 mi North 12.7 mph - N/A   Partly Cloudy
3:35 AM 33.8 °F 26.4 °F 32.0 °F 93% 30.05 in 10.0 mi North 9.2 mph - N/A   Mostly Cloudy
3:55 AM 35.6 °F 29.9 °F 32.0 °F 87% 30.05 in 10.0 mi North 6.9 mph - N/A   Overcast
4:15 AM 35.6 °F 32.8 °F 33.8 °F 93% 30.05 in 10.0 mi NNW 3.5 mph - N/A   Overcast
4:35 AM 33.8 °F 30.8 °F 33.8 °F 100% 30.04 in 10.0 mi NW 3.5 mph - N/A   Overcast
4:55 AM 35.6 °F 32.8 °F 33.8 °F 93% 30.04 in 10.0 mi East 3.5 mph - N/A   Overcast
5:15 AM 35.6 °F - 33.8 °F 93% 30.04 in 10.0 mi Calm Calm - N/A   Overcast
5:35 AM 35.6 °F 31.7 °F 33.8 °F 93% 30.05 in 5.0 mi SSE 4.6 mph - N/A   Overcast
5:55 AM 33.8 °F 29.6 °F 33.8 °F 100% 30.03 in 1.2 mi NNE 4.6 mph - 0.04 in   Overcast
6:15 AM 33.8 °F - 32.0 °F 93% 30.05 in 4.0 mi Calm Calm - 0.03 in   Overcast
6:35 AM 33.8 °F 30.8 °F 32.0 °F 93% 30.04 in 2.5 mi NW 3.5 mph - 0.04 in   Overcast
6:51 AM 33.8 °F - 32.0 °F 93% 30.04 in 3.0 mi Calm Calm - N/A Snow Light Snow
6:55 AM 33.8 °F - 32.0 °F 93% 30.04 in 5.0 mi Calm Calm - N/A   Overcast
7:52 AM 33.8 °F 27.7 °F 33.8 °F 100% 30.03 in 5.0 mi North 6.9 mph - N/A   Overcast
8:34 AM 33.8 °F 28.6 °F 33.8 °F 100% 30.05 in 0.8 mi SSE 5.8 mph - N/A Snow Light Snow
8:51 AM 33.8 °F - 32.0 °F 93% 30.05 in 3.0 mi Calm Calm - N/A Snow Light Snow
9:54 AM 35.6 °F - 35.6 °F 100% 30.05 in 4.0 mi Calm Calm - N/A Snow Snow Showers
10:51 AM 35.6 °F - 35.6 °F 100% 30.05 in 7.0 mi Calm Calm - N/A   Overcast
11:59 AM 39.2 °F 37.0 °F 37.4 °F 93% 30.04 in 7.0 mi SE 3.5 mph - N/A   Overcast
12:58 PM 42.8 °F - 37.4 °F 81% 30.02 in 10.0 mi Calm Calm - N/A   Mostly Cloudy
1:51 PM 44.6 °F - 37.4 °F 76% 30.00 in 10.0 mi Calm Calm - N/A   Mostly Cloudy
2:53 PM 42.8 °F 40.1 °F 39.2 °F 87% 29.99 in 10.0 mi SW 4.6 mph - N/A   Overcast
3:54 PM 42.8 °F - 39.2 °F 87% 29.99 in 10.0 mi Calm Calm - N/A   Overcast
4:51 PM 41.0 °F 38.0 °F 39.2 °F 93% 30.00 in 10.0 mi South 4.6 mph - N/A   Overcast
5:51 PM 39.2 °F 34.2 °F 39.2 °F 100% 30.01 in 5.0 mi South 6.9 mph - N/A   Overcast
6:51 PM 37.4 °F 34.9 °F 37.4 °F 100% 30.03 in 10.0 mi South 3.5 mph - N/A   Overcast
7:53 PM 37.4 °F - 37.4 °F 100% 30.03 in 10.0 mi Calm Calm - N/A   Overcast
8:55 PM 37.4 °F - 35.6 °F 93% 30.03 in 10.0 mi Calm Calm - 0.01 in   Overcast
9:15 PM 37.4 °F - 37.4 °F 100% 30.03 in 10.0 mi Calm Calm - N/A   Overcast
9:35 PM 37.4 °F - 37.4 °F 100% 30.03 in 10.0 mi Calm Calm - N/A   Overcast
10:15 PM 37.4 °F - 37.4 °F 100% 30.03 in 10.0 mi Calm Calm - N/A   Overcast
10:35 PM 37.4 °F - 37.4 °F 100% 30.03 in 10.0 mi Calm Calm - N/A   Overcast
10:55 PM 37.4 °F - 37.4 °F 100% 30.03 in 10.0 mi Calm Calm - N/A   Overcast
11:15 PM 37.4 °F - 37.4 °F 100% 30.03 in 10.0 mi Calm Calm - N/A   Overcast
11:35 PM 37.4 °F - 37.4 °F 100% 30.03 in 10.0 mi Calm Calm - N/A   Overcast
11:55 PM 37.4 °F - 37.4 °F 100% 30.03 in 8.0 mi Calm Calm - N/A   Overcast